Meteo Giornale » Osservazioni meteo Gran Bretagna » Doncaster Sheffield

ore: 04:50 - Osservazioni Meteo Doncaster Sheffield
Lat. 53° 29' N Lon. 1° 0' W Alt. 17 metri s.l.m.

foschia Europe/London

9 °C

Foschia

Temp. 24 Ore

4 °C

13 °C

Nord

3.7 Km/h

Dew point 9 °C

Umidità 100 %

Visibilità  2 Km

Il sole sorge alle ore 07:46

Il sole tramonta alle ore 17:49

Data e Ora Cielo e Fenomeni T °C DP °C Um. % Pres. hPa Vis. km Vento km/h
Oggi h: 04:50 foschia Foschia 9 9 100 1004 2 N 3.7
Oggi h: 03:20 foschia Foschia 10 10 100 1005 2 N 5.5
Oggi h: 02:50 foschia Foschia 10 10 100 1005 3 N 5.5
Oggi h: 02:20 foschia Foschia 10 10 100 1005 3 S 7.4
Oggi h: 01:50 foschia Foschia 9 9 100 1005 3 N 3.7
Oggi h: 00:50 foschia Foschia 10 10 100 1006 5 S 9.3
Oggi h: 00:20 sereno Sereno 10 10 100 1006 6 S 9.3
Ieri h: 23:50 sereno Sereno 10 10 100 1007 6 S/SE 9.3
Ieri h: 23:20 sereno Sereno 10 10 100 1007 7 S/SE 11.1
Ieri h: 22:50 poco_nuvoloso Poco Nuvoloso 10 10 100 1007 8 SE 11.1
Ieri h: 22:20 sereno Sereno 10 10 100 1008 10 S/SE 7.4
Ieri h: 21:50 sereno Sereno 10 10 100 1008 9 SE 11.1
Ieri h: 21:20 coperto_pioggia Pioggia 10 10 100 1008 8 S 7.4
Ieri h: 20:50 nuvoloso_piovaschi Rovescio di Pioggia 11 9 87 1008 10 S 7.4
Ieri h: 20:20 sereno Sereno 11 9 87 1008 10 S/SE 11.1
Ieri h: 19:50 sereno Sereno 11 9 87 1009 10 SE 11.1
Ieri h: 19:20 nuvoloso Nuvoloso 11 9 87 1009 10 SE 11.1
Ieri h: 18:50 sereno Sereno 11 9 87 1009 10 SE 11.1
Ieri h: 18:20 sereno Sereno 11 9 87 1009 10 S/SE 9.3
Ieri h: 17:50 sereno Sereno 11 9 87 1010 10 SE 7.4
Ieri h: 17:20 sereno Sereno 11 9 87 1010 6 SE 7.4
Ieri h: 16:50 poco_nuvoloso Poco Nuvoloso 12 9 81 1011 9 N 5.5
Ieri h: 16:20 sereno Sereno 12 9 81 1011 10 SO 9.3
Ieri h: 15:50 poco_nuvoloso Poco Nuvoloso 12 9 81 1011 10 S/SO 13
Ieri h: 15:20 poco_nuvoloso Poco Nuvoloso 13 9 76 1012 10 S/SE 11.1
Ieri h: 14:50 poco_nuvoloso Poco Nuvoloso 12 9 81 1012 10 S 14.8
Ieri h: 14:20 poco_nuvoloso Poco Nuvoloso 13 9 76 1012 10 S 18.5
Ieri h: 13:50 nuvoloso Nuvoloso 12 9 81 1013 9 S/SE 13
Ieri h: 13:20 nuvoloso Nuvoloso 11 9 87 1013 10 S 14.8
Ieri h: 12:50 poco_nuvoloso Poco Nuvoloso 11 9 87 1014 10 S 18.5
Ieri h: 12:20 poco_nuvoloso Poco Nuvoloso 11 9 87 1014 10 S 20.3
Ieri h: 11:50 nuvoloso Nuvoloso 10 9 93 1015 8 S/SO 14.8
Ieri h: 11:20 foschia Foschia 8 8 100 1015 2 S 14.8
Ieri h: 10:50 foschia Foschia 8 8 100 1016 1 S 16.7
Ieri h: 10:20 nebbia Nebbia 7 7 100 1016 0.45 S 14.8
Ieri h: 09:50 nebbia Nebbia 7 6 93 1017 0.6 S 13
Ieri h: 09:20 sereno Sereno 6 6 100 1017 6 S 9.3
Ieri h: 08:50 sereno Sereno 4 4 100 1017 6 S 9.3
Ieri h: 08:20 foschia Foschia 4 4 100 1017 5 S/SE 9.3
Ieri h: 07:50 foschia Foschia 4 4 100 1017 5 S 11.1
Ieri h: 07:20 nebbia Nebbia a Strati 4 4 100 1017 6 S 9.3
Ieri h: 06:50 sereno Sereno 4 4 100 1017 8 S 9.3
Ieri h: 06:20 sereno Sereno 4 3 93 1017 7 S 9.3
Ieri h: 05:50 sereno Sereno 4 4 100 1017 8 S 11.1